Time,TemperatureF,DewpointF,PressureIn,WindDirection,WindDirectionDegrees,WindSpeedMPH,WindSpeedGustMPH,Humidity,HourlyPrecipIn,Conditions,Clouds,dailyrainin,SoftwareType,DateUTC
2013-01-24 00:02:00,58.0,39.0,-100.00,NE,54,1.0,1.0,50,-99.99,,,-99.99,,2013-01-24 08:02:00,
2013-01-24 00:12:00,58.0,41.0,-100.00,NE,39,1.0,1.0,54,-99.99,,,-99.99,,2013-01-24 08:12:00,
2013-01-24 00:22:00,58.0,41.0,-100.00,NE,47,3.0,4.0,53,-99.99,,,-99.99,,2013-01-24 08:22:00,
2013-01-24 00:32:00,57.0,41.0,-100.00,NE,36,2.0,4.0,55,-99.99,,,-99.99,,2013-01-24 08:32:00,
2013-01-24 00:42:00,57.0,41.0,-100.00,NNE,28,4.0,6.0,54,-99.99,,,-99.99,,2013-01-24 08:42:00,
2013-01-24 00:52:00,57.0,41.0,-100.00,NE,42,4.0,5.0,56,-99.99,,,-99.99,,2013-01-24 08:52:00,
2013-01-24 01:02:00,56.0,42.0,-100.00,NE,39,4.0,8.0,59,-99.99,,,-99.99,,2013-01-24 09:02:00,
2013-01-24 01:12:00,56.0,43.0,-100.00,NE,37,4.0,8.0,61,-99.99,,,-99.99,,2013-01-24 09:12:00,
2013-01-24 01:22:00,56.0,44.0,-100.00,North,2,4.0,5.0,65,-99.99,,,-99.99,,2013-01-24 09:22:00,
2013-01-24 01:32:00,56.0,44.0,-100.00,North,9,5.0,7.0,65,-99.99,,,-99.99,,2013-01-24 09:32:00,
2013-01-24 01:42:00,57.0,44.0,-100.00,NNE,12,4.0,6.0,62,-99.99,,,-99.99,,2013-01-24 09:42:00,
2013-01-24 01:52:00,57.0,44.0,-100.00,NNE,12,4.0,6.0,62,-99.99,,,-99.99,,2013-01-24 09:52:00,
2013-01-24 02:02:00,56.0,44.0,-100.00,ENE,57,3.0,4.0,64,-99.99,,,-99.99,,2013-01-24 10:02:00,
2013-01-24 02:12:00,55.0,44.0,-100.00,ENE,58,2.0,3.0,66,-99.99,,,-99.99,,2013-01-24 10:12:00,
2013-01-24 02:22:00,55.0,45.0,-100.00,ENE,67,3.0,4.0,68,-99.99,,,-99.99,,2013-01-24 10:22:00,
2013-01-24 02:32:00,55.0,45.0,-100.00,NE,48,3.0,4.0,69,-99.99,,,-99.99,,2013-01-24 10:32:00,
2013-01-24 02:42:00,55.0,45.0,-100.00,NE,51,2.0,4.0,70,-99.99,,,-99.99,,2013-01-24 10:42:00,
2013-01-24 02:52:00,55.0,45.0,-100.00,NE,48,2.0,4.0,68,-99.99,,,-99.99,,2013-01-24 10:52:00,
2013-01-24 03:02:00,55.0,44.0,-100.00,NE,56,3.0,4.0,67,-99.99,,,-99.99,,2013-01-24 11:02:00,
2013-01-24 03:12:00,55.0,44.0,-100.00,NNE,28,3.0,5.0,67,-99.99,,,-99.99,,2013-01-24 11:12:00,
2013-01-24 03:22:00,55.0,46.0,-100.00,NE,52,2.0,3.0,71,-99.99,,,-99.99,,2013-01-24 11:22:00,
2013-01-24 03:32:00,54.0,46.0,-100.00,South,171,0.0,1.0,75,-99.99,,,-99.99,,2013-01-24 11:32:00,
2013-01-24 03:42:00,54.0,47.0,-100.00,East,81,0.0,2.0,78,-99.99,,,-99.99,,2013-01-24 11:42:00,
2013-01-24 03:52:00,53.0,47.0,-100.00,ENE,66,1.0,3.0,80,-99.99,,,-99.99,,2013-01-24 11:52:00,
2013-01-24 04:03:00,53.0,48.0,-100.00,NNE,33,2.0,3.0,83,-99.99,,,-99.99,,2013-01-24 12:03:00,
2013-01-24 04:12:00,53.0,49.0,-100.00,ENE,66,3.0,5.0,86,-99.99,,,-99.99,,2013-01-24 12:12:00,
2013-01-24 04:22:00,52.0,49.0,-100.00,NE,49,3.0,5.0,89,-99.99,,,-99.99,,2013-01-24 12:22:00,
2013-01-24 04:32:00,52.0,49.0,-100.00,NW,312,2.0,4.0,90,-99.99,,,-99.99,,2013-01-24 12:32:00,
2013-01-24 04:42:00,53.0,50.0,-100.00,North,1,3.0,4.0,90,-99.99,,,-99.99,,2013-01-24 12:42:00,
2013-01-24 04:52:00,53.0,50.0,-100.00,ENE,59,3.0,5.0,90,-99.99,,,-99.99,,2013-01-24 12:52:00,
2013-01-24 05:02:00,53.0,50.0,-100.00,NNE,25,1.0,3.0,91,-99.99,,,-99.99,,2013-01-24 13:02:00,
2013-01-24 05:12:00,53.0,50.0,-100.00,NE,47,3.0,4.0,91,-99.99,,,-99.99,,2013-01-24 13:12:00,
2013-01-24 05:22:00,53.0,51.0,-100.00,NNE,13,1.0,3.0,92,-99.99,,,-99.99,,2013-01-24 13:22:00,
2013-01-24 05:32:00,53.0,51.0,-100.00,North,349,1.0,4.0,92,-99.99,,,-99.99,,2013-01-24 13:32:00,
2013-01-24 05:42:00,53.0,51.0,-100.00,North,349,1.0,4.0,92,-99.99,,,-99.99,,2013-01-24 13:42:00,
2013-01-24 05:52:00,53.0,51.0,-100.00,NE,40,2.0,6.0,92,-99.99,,,-99.99,,2013-01-24 13:52:00,
2013-01-24 06:02:00,53.0,51.0,-100.00,NE,50,2.0,5.0,92,-99.99,,,-99.99,,2013-01-24 14:02:00,
2013-01-24 06:12:00,54.0,52.0,-100.00,NNE,26,3.0,6.0,92,-99.99,,,-99.99,,2013-01-24 14:12:00,
2013-01-24 06:22:00,54.0,52.0,-100.00,NE,42,2.0,5.0,92,-99.99,,,-99.99,,2013-01-24 14:22:00,
2013-01-24 06:32:00,54.0,52.0,-100.00,NE,43,2.0,4.0,92,-99.99,,,-99.99,,2013-01-24 14:32:00,
2013-01-24 06:43:00,54.0,52.0,-100.00,NE,45,4.0,6.0,92,-99.99,,,-99.99,,2013-01-24 14:43:00,
2013-01-24 06:53:00,54.0,52.0,-100.00,NE,43,3.0,6.0,92,-99.99,,,-99.99,,2013-01-24 14:53:00,
2013-01-24 07:02:00,54.0,52.0,-100.00,NE,55,3.0,5.0,92,-99.99,,,-99.99,,2013-01-24 15:02:00,
2013-01-24 07:12:00,54.0,52.0,-100.00,NE,54,3.0,5.0,93,-99.99,,,-99.99,,2013-01-24 15:12:00,
2013-01-24 07:22:00,55.0,53.0,-100.00,ENE,58,3.0,5.0,92,-99.99,,,-99.99,,2013-01-24 15:22:00,
2013-01-24 07:32:00,55.0,52.0,-100.00,ENE,62,3.0,6.0,89,-99.99,,,-99.99,,2013-01-24 15:32:00,
2013-01-24 07:42:00,55.0,52.0,-100.00,ENE,62,3.0,6.0,89,-99.99,,,-99.99,,2013-01-24 15:42:00,
2013-01-24 07:52:00,56.0,52.0,-100.00,NE,42,2.0,4.0,87,-99.99,,,-99.99,,2013-01-24 15:52:00,
2013-01-24 08:02:00,55.0,52.0,-100.00,NNE,28,3.0,4.0,88,-99.99,,,-99.99,,2013-01-24 16:02:00,
2013-01-24 08:12:00,55.0,52.0,-100.00,NE,36,1.0,2.0,88,-99.99,,,-99.99,,2013-01-24 16:12:00,
2013-01-24 08:22:00,55.0,52.0,-100.00,NW,306,1.0,2.0,89,-99.99,,,-99.99,,2013-01-24 16:22:00,
2013-01-24 08:33:00,55.0,52.0,-100.00,East,92,0.0,2.0,89,-99.99,,,-99.99,,2013-01-24 16:33:00,
2013-01-24 08:42:00,55.0,52.0,-100.00,NNE,31,0.0,2.0,90,-99.99,,,-99.99,,2013-01-24 16:42:00,
2013-01-24 09:01:00,55.0,52.0,-100.00,NNE,21,2.0,3.0,91,-99.99,,,-99.99,,2013-01-24 17:01:00,
2013-01-24 09:11:00,55.0,53.0,-100.00,ENE,58,2.0,3.0,92,-99.99,,,-99.99,,2013-01-24 17:11:00,
2013-01-24 09:21:00,55.0,53.0,-100.00,ENE,58,2.0,3.0,92,-99.99,,,-99.99,,2013-01-24 17:21:00,
2013-01-24 09:31:00,55.0,53.0,-100.00,NNE,32,2.0,3.0,92,-99.99,,,-99.99,,2013-01-24 17:31:00,
2013-01-24 09:42:00,56.0,54.0,-100.00,NE,36,1.0,2.0,92,-99.99,,,-99.99,,2013-01-24 17:42:00,
2013-01-24 09:52:00,56.0,54.0,-100.00,NE,51,2.0,3.0,92,-99.99,,,-99.99,,2013-01-24 17:52:00,
2013-01-24 10:01:00,57.0,54.0,-100.00,NNE,24,2.0,3.0,91,-99.99,,,-99.99,,2013-01-24 18:01:00,
2013-01-24 10:11:00,57.0,54.0,-100.00,NE,40,2.0,3.0,91,-99.99,,,-99.99,,2013-01-24 18:11:00,
2013-01-24 10:22:00,58.0,55.0,-100.00,ENE,60,1.0,2.0,90,-99.99,,,-99.99,,2013-01-24 18:22:00,
2013-01-24 10:32:00,58.0,55.0,-100.00,ENE,59,1.0,2.0,89,-99.99,,,-99.99,,2013-01-24 18:32:00,
2013-01-24 10:42:00,59.0,55.0,-100.00,NE,46,1.0,2.0,88,-99.99,,,-99.99,,2013-01-24 18:42:00,
2013-01-24 10:52:00,60.0,56.0,-100.00,NE,53,2.0,4.0,86,-99.99,,,-99.99,,2013-01-24 18:52:00,
2013-01-24 11:01:00,61.0,54.0,-100.00,ENE,74,3.0,6.0,79,-99.99,,,-99.99,,2013-01-24 19:01:00,
2013-01-24 11:12:00,62.0,52.0,-100.00,ESE,122,4.0,8.0,71,-99.99,,,-99.99,,2013-01-24 19:12:00,
2013-01-24 11:21:00,62.0,52.0,-100.00,SE,139,4.0,7.0,70,-99.99,,,-99.99,,2013-01-24 19:21:00,
2013-01-24 11:32:00,62.0,52.0,-100.00,SE,139,5.0,11.0,69,-99.99,,,-99.99,,2013-01-24 19:32:00,
2013-01-24 11:42:00,62.0,52.0,-100.00,SE,139,5.0,12.0,69,-99.99,,,-99.99,,2013-01-24 19:42:00,
2013-01-24 11:51:00,62.0,52.0,-100.00,SE,137,4.0,11.0,70,-99.99,,,-99.99,,2013-01-24 19:51:00,
2013-01-24 12:01:00,62.0,52.0,-100.00,SE,137,4.0,11.0,70,-99.99,,,-99.99,,2013-01-24 20:01:00,
2013-01-24 12:11:00,63.0,53.0,-100.00,East,94,4.0,9.0,69,-99.99,,,-99.99,,2013-01-24 20:11:00,
2013-01-24 12:22:00,63.0,53.0,-100.00,NNE,32,2.0,4.0,69,-99.99,,,-99.99,,2013-01-24 20:22:00,
2013-01-24 12:32:00,64.0,54.0,-100.00,ENE,74,3.0,6.0,69,-99.99,,,-99.99,,2013-01-24 20:32:00,
2013-01-24 12:42:00,64.0,54.0,-100.00,ENE,74,3.0,6.0,69,-99.99,,,-99.99,,2013-01-24 20:42:00,
2013-01-24 12:52:00,65.0,54.0,-100.00,SE,126,2.0,4.0,68,-99.99,,,-99.99,,2013-01-24 20:52:00,
2013-01-24 13:02:00,65.0,53.0,-100.00,South,183,3.0,6.0,66,-99.99,,,-99.99,,2013-01-24 21:02:00,
2013-01-24 13:11:00,65.0,53.0,-100.00,South,183,3.0,6.0,66,-99.99,,,-99.99,,2013-01-24 21:11:00,
2013-01-24 13:22:00,65.0,53.0,-100.00,South,172,2.0,6.0,66,-99.99,,,-99.99,,2013-01-24 21:22:00,
2013-01-24 13:32:00,66.0,53.0,-100.00,SSW,203,2.0,4.0,64,-99.99,,,-99.99,,2013-01-24 21:32:00,
2013-01-24 13:42:00,66.0,53.0,-100.00,NNE,33,2.0,4.0,63,-99.99,,,-99.99,,2013-01-24 21:42:00,
2013-01-24 13:52:00,66.0,53.0,-100.00,SSE,159,2.0,4.0,63,-99.99,,,-99.99,,2013-01-24 21:52:00,
2013-01-24 14:02:00,67.0,54.0,-100.00,SW,220,3.0,6.0,63,-99.99,,,-99.99,,2013-01-24 22:02:00,
2013-01-24 14:12:00,67.0,54.0,-100.00,WSW,237,2.0,6.0,62,-99.99,,,-99.99,,2013-01-24 22:12:00,
2013-01-24 14:22:00,67.0,53.0,-100.00,SW,229,3.0,6.0,60,-99.99,,,-99.99,,2013-01-24 22:22:00,
2013-01-24 14:32:00,67.0,53.0,-100.00,SW,229,3.0,6.0,61,-99.99,,,-99.99,,2013-01-24 22:32:00,
2013-01-24 14:42:00,67.0,52.0,-100.00,SW,227,4.0,10.0,58,-99.99,,,-99.99,,2013-01-24 22:42:00,
2013-01-24 14:52:00,68.0,52.0,-100.00,South,190,6.0,12.0,56,-99.99,,,-99.99,,2013-01-24 22:52:00,
2013-01-24 15:01:00,68.0,52.0,-100.00,South,189,3.0,8.0,56,-99.99,,,-99.99,,2013-01-24 23:01:00,
2013-01-24 15:11:00,68.0,52.0,-100.00,SW,215,4.0,6.0,57,-99.99,,,-99.99,,2013-01-24 23:11:00,
2013-01-24 15:21:00,68.0,52.0,-100.00,SSW,204,4.0,7.0,57,-99.99,,,-99.99,,2013-01-24 23:21:00,
2013-01-24 15:32:00,68.0,51.0,-100.00,SW,214,5.0,7.0,55,-99.99,,,-99.99,,2013-01-24 23:32:00,
2013-01-24 15:42:00,69.0,52.0,-100.00,South,185,3.0,5.0,54,-99.99,,,-99.99,,2013-01-24 23:42:00,
2013-01-24 15:52:00,69.0,52.0,-100.00,SW,223,4.0,7.0,54,-99.99,,,-99.99,,2013-01-24 23:52:00,
2013-01-24 16:01:00,69.0,52.0,-100.00,WSW,239,3.0,7.0,55,-99.99,,,-99.99,,2013-01-25 00:01:00,
2013-01-24 16:12:00,68.0,51.0,-100.00,SW,226,3.0,7.0,55,-99.99,,,-99.99,,2013-01-25 00:12:00,
2013-01-24 16:21:00,67.0,52.0,-100.00,SW,232,6.0,9.0,58,-99.99,,,-99.99,,2013-01-25 00:21:00,
2013-01-24 16:32:00,67.0,52.0,-100.00,SW,232,6.0,9.0,58,-99.99,,,-99.99,,2013-01-25 00:32:00,
2013-01-24 16:41:00,66.0,51.0,-100.00,SW,232,4.0,6.0,59,-99.99,,,-99.99,,2013-01-25 00:41:00,
2013-01-24 16:51:00,66.0,51.0,-100.00,SSW,199,3.0,5.0,59,-99.99,,,-99.99,,2013-01-25 00:51:00,
2013-01-24 17:01:00,66.0,51.0,-100.00,SSW,199,3.0,5.0,58,-99.99,,,-99.99,,2013-01-25 01:01:00,
2013-01-24 17:11:00,65.0,50.0,-100.00,SW,226,3.0,6.0,59,-99.99,,,-99.99,,2013-01-25 01:11:00,
2013-01-24 17:21:00,65.0,51.0,-100.00,SW,218,2.0,3.0,61,-99.99,,,-99.99,,2013-01-25 01:21:00,
2013-01-24 17:31:00,64.0,51.0,-100.00,SW,223,2.0,3.0,62,-99.99,,,-99.99,,2013-01-25 01:31:00,
2013-01-24 17:41:00,64.0,51.0,-100.00,West,263,1.0,2.0,62,-99.99,,,-99.99,,2013-01-25 01:41:00,
2013-01-24 17:51:00,63.0,51.0,-100.00,ENE,73,2.0,3.0,65,-99.99,,,-99.99,,2013-01-25 01:51:00,
2013-01-24 18:01:00,60.0,51.0,-100.00,NE,38,2.0,4.0,72,-99.99,,,-99.99,,2013-01-25 02:01:00,
2013-01-24 18:11:00,60.0,51.0,-100.00,NE,38,2.0,4.0,72,-99.99,,,-99.99,,2013-01-25 02:11:00,
2013-01-24 18:22:00,60.0,51.0,-100.00,NE,45,3.0,4.0,73,-99.99,,,-99.99,,2013-01-25 02:22:00,
2013-01-24 18:32:00,60.0,52.0,-100.00,NNE,30,4.0,6.0,74,-99.99,,,-99.99,,2013-01-25 02:32:00,
2013-01-24 18:42:00,60.0,52.0,-100.00,NE,39,3.0,5.0,74,-99.99,,,-99.99,,2013-01-25 02:42:00,
2013-01-24 18:52:00,59.0,51.0,-100.00,NNE,31,2.0,3.0,76,-99.99,,,-99.99,,2013-01-25 02:52:00,
2013-01-24 19:01:00,59.0,52.0,-100.00,NNE,21,4.0,5.0,77,-99.99,,,-99.99,,2013-01-25 03:01:00,
2013-01-24 19:12:00,59.0,51.0,-100.00,NNE,19,3.0,4.0,76,-99.99,,,-99.99,,2013-01-25 03:12:00,
2013-01-24 19:21:00,59.0,51.0,-100.00,NNE,19,3.0,4.0,76,-99.99,,,-99.99,,2013-01-25 03:21:00,
2013-01-24 19:32:00,58.0,51.0,-100.00,SE,138,1.0,2.0,78,-99.99,,,-99.99,,2013-01-25 03:32:00,
2013-01-24 19:41:00,58.0,52.0,-100.00,ENE,68,3.0,5.0,79,-99.99,,,-99.99,,2013-01-25 03:41:00,
2013-01-24 19:52:00,57.0,52.0,-100.00,NE,48,3.0,4.0,82,-99.99,,,-99.99,,2013-01-25 03:52:00,
2013-01-24 20:01:00,57.0,52.0,-100.00,NE,52,3.0,4.0,82,-99.99,,,-99.99,,2013-01-25 04:01:00,
2013-01-24 20:11:00,57.0,52.0,-100.00,NE,45,3.0,4.0,83,-99.99,,,-99.99,,2013-01-25 04:11:00,
2013-01-24 20:22:00,57.0,52.0,-100.00,NE,37,3.0,4.0,83,-99.99,,,-99.99,,2013-01-25 04:22:00,
2013-01-24 20:31:00,57.0,52.0,-100.00,NE,54,3.0,4.0,83,-99.99,,,-99.99,,2013-01-25 04:31:00,
2013-01-24 20:41:00,57.0,52.0,-100.00,NE,38,3.0,4.0,84,-99.99,,,-99.99,,2013-01-25 04:41:00,
2013-01-24 20:51:00,57.0,52.0,-100.00,NNE,33,3.0,5.0,83,-99.99,,,-99.99,,2013-01-25 04:51:00,
2013-01-24 21:03:00,57.0,52.0,-100.00,NE,44,2.0,4.0,83,-99.99,,,-99.99,,2013-01-25 05:03:00,
2013-01-24 21:12:00,57.0,52.0,-100.00,NE,56,3.0,5.0,84,-99.99,,,-99.99,,2013-01-25 05:12:00,
2013-01-24 21:22:00,56.0,51.0,-100.00,NE,49,3.0,5.0,84,-99.99,,,-99.99,,2013-01-25 05:22:00,
2013-01-24 21:32:00,57.0,52.0,-100.00,NE,45,3.0,5.0,84,-99.99,,,-99.99,,2013-01-25 05:32:00,
2013-01-24 21:42:00,57.0,52.0,-100.00,NE,47,2.0,4.0,84,-99.99,,,-99.99,,2013-01-25 05:42:00,
2013-01-24 21:52:00,56.0,51.0,-100.00,NE,54,2.0,4.0,84,-99.99,,,-99.99,,2013-01-25 05:52:00,
2013-01-24 22:01:00,56.0,52.0,-100.00,NE,50,2.0,4.0,85,-99.99,,,-99.99,,2013-01-25 06:01:00,
2013-01-24 22:11:00,56.0,52.0,-100.00,NE,54,2.0,3.0,85,-99.99,,,-99.99,,2013-01-25 06:11:00,
2013-01-24 22:21:00,56.0,52.0,-100.00,NE,43,2.0,4.0,86,-99.99,,,-99.99,,2013-01-25 06:21:00,
2013-01-24 22:31:00,56.0,52.0,-100.00,NE,36,4.0,5.0,86,-99.99,,,-99.99,,2013-01-25 06:31:00,
2013-01-24 22:41:00,57.0,53.0,-100.00,NNE,30,4.0,6.0,86,-99.99,,,-99.99,,2013-01-25 06:41:00,
2013-01-24 22:51:00,56.0,52.0,-100.00,NNE,25,2.0,4.0,86,-99.99,,,-99.99,,2013-01-25 06:51:00,
2013-01-24 23:01:00,57.0,53.0,-100.00,NE,40,5.0,10.0,87,-99.99,,,-99.99,,2013-01-25 07:01:00,
2013-01-24 23:11:00,56.0,53.0,-100.00,NNE,32,7.0,11.0,89,-99.99,,,-99.99,,2013-01-25 07:11:00,
2013-01-24 23:21:00,57.0,54.0,-100.00,NNE,27,5.0,8.0,89,-99.99,,,-99.99,,2013-01-25 07:21:00,
2013-01-24 23:31:00,58.0,55.0,-100.00,NNE,30,3.0,6.0,89,-99.99,,,-99.99,,2013-01-25 07:31:00,
2013-01-24 23:41:00,58.0,54.0,-100.00,NW,308,4.0,9.0,88,-99.99,,,-99.99,,2013-01-25 07:41:00,
2013-01-24 23:51:00,58.0,54.0,-100.00,NNW,328,8.0,13.0,87,-99.99,,,-99.99,,2013-01-25 07:51:00,